This demonstration page uses our WeatherBlox Daily Observations layout. Learn more.

Left ArrowRight Arrow

53.62937, 11.41316

Hourly Observations for April 12, 2016

Temp ( °F °C ) Dew Point ( °F °C ) Humidity (%) Winds ( mph kmh ) Pressure ( in mb ) Visibility ( mi km ) Precip ( " mm )
2:20 am 02:20 Cloudy 45 7 39 4 81 81 ENE 8 13 29.97 1015 30 48 N/A
2:50 am 02:50 Mostly Cloudy 45 7 39 4 81 81 ENE 9 15 29.94 1014 30 48 N/A
3:20 am 03:20 Mostly Cloudy 45 7 39 4 81 81 ENE 9 15 29.94 1014 30 48 N/A
3:50 am 03:50 Mostly Cloudy with Light Rain 45 7 39 4 81 81 ENE 9 15 29.94 1014 30 48 N/A
4:20 am 04:20 Mostly Cloudy with Light Rain 45 7 39 4 81 81 ENE 8 13 29.94 1014 30 48 N/A
4:50 am 04:50 Mostly Cloudy 45 7 39 4 81 81 ENE 7 11 29.91 1013 30 48 N/A
5:20 am 05:20 Cloudy with Light Rain 45 7 39 4 81 81 ENE 8 13 29.91 1013 30 48 N/A
5:50 am 05:50 Cloudy 45 7 39 4 81 81 ENE 8 13 29.91 1013 30 48 N/A
6:20 am 06:20 Cloudy with Light Rain 45 7 41 5 87 87 ENE 7 11 29.91 1013 30 48 N/A
6:50 am 06:50 Cloudy with Light Rain 45 7 41 5 87 87 ENE 8 13 29.88 1012 30 48 N/A
7:20 am 07:20 Cloudy 45 7 41 5 87 87 ENE 7 11 29.88 1012 30 48 N/A
7:50 am 07:50 Cloudy 45 7 41 5 87 87 ENE 7 11 29.88 1012 30 48 N/A
8:20 am 08:20 Cloudy 45 7 41 5 87 87 ENE 9 15 29.88 1012 30 48 N/A
8:50 am 08:50 Cloudy with Light Rain 45 7 43 6 93 93 ENE 7 11 29.88 1012 30 48 N/A
9:20 am 09:20 Cloudy with Light Rain 45 7 43 6 93 93 E 5 7 29.88 1012 30 48 N/A
9:50 am 09:50 Cloudy with Light Rain 45 7 43 6 93 93 NE 5 7 29.88 1012 30 48 N/A
10:20 am 10:20 Cloudy 45 7 43 6 93 93 NE 2 4 29.91 1013 30 48 N/A
10:50 am 10:50 Cloudy 46 8 43 6 87 87 E 3 6 29.91 1013 30 48 N/A
11:20 am 11:20 Cloudy with Light Rain 46 8 43 6 87 87 ENE 8 13 29.88 1012 30 48 N/A
11:50 am 11:50 Mostly Cloudy 48 9 43 6 82 82 ENE 10 17 29.88 1012 30 48 N/A
12:20 pm 12:20 Mostly Cloudy 48 9 43 6 82 82 ENE 9 15 29.88 1012 30 48 N/A
12:50 pm 12:50 Mostly Cloudy 50 10 45 7 82 82 E 7 11 29.88 1012 30 48 N/A
1:20 pm 13:20 Mostly Cloudy 50 10 45 7 82 82 ENE 6 9 29.88 1012 30 48 N/A
1:50 pm 13:50 Mostly Cloudy 52 11 45 7 77 77 E 7 11 29.88 1012 30 48 N/A
2:20 pm 14:20 Mostly Cloudy 52 11 45 7 77 77 E 6 9 29.85 1011 30 48 N/A
2:50 pm 14:50 Mostly Cloudy 54 12 45 7 72 72 E 6 9 29.85 1011 30 48 N/A
3:20 pm 15:20 Mostly Cloudy 54 12 45 7 72 72 E 3 6 29.85 1011 30 48 N/A
3:50 pm 15:50 Mostly Cloudy 55 13 46 8 72 72 E 5 7 29.85 1011 30 48 N/A
4:20 pm 16:20 Mostly Cloudy 55 13 45 7 67 67 E 5 7 29.85 1011 30 48 N/A
4:50 pm 16:50 Partly Cloudy 57 14 46 8 67 67 E 5 7 29.83 1010 30 48 N/A
5:20 pm 17:20 Partly Cloudy 57 14 45 7 63 63 ESE 5 7 29.83 1010 30 48 N/A
5:50 pm 17:50 Mostly Cloudy 57 14 46 8 67 67 ENE 6 9 29.83 1010 30 48 N/A
6:20 pm 18:20 Mostly Sunny 57 14 45 7 63 63 ENE 8 13 29.83 1010 30 48 N/A
6:50 pm 18:50 Mostly Sunny 57 14 46 8 67 67 ENE 8 13 29.83 1010 7 11 N/A

Powered by AerisWeather